Location: Newark
(25.6108°S, 54.5803°W)
Time: 14:27:44
(UTC+00:00)

Vanguard 3 - All Passes

Search period start: 30 October 2020 00:00
Search period end: 09 November 2020 00:00
Orbit: 507 x 3263 km, 33.4° (Epoch: 29 October)

Date Brightness Start Highest point End Pass type
(mag) Time Alt. Az. Time Alt. Az. Time Alt. Az.
30 Oct - 01:53:27 10° WSW 01:57:57 83° SSE 02:05:20 10° ENE night (unlit)
30 Oct - 04:04:50 10° W 04:10:30 32° NNW 04:19:34 10° NNE night (unlit)
30 Oct - 18:01:26 10° NNW 18:08:18 28° NNE 18:12:51 10° E daylight
30 Oct - 20:14:41 10° WNW 20:20:20 76° SSW 20:24:16 10° ESE daylight
30 Oct - 22:28:47 10° WSW 22:32:06 26° S 22:35:22 10° SE visible
31 Oct - 00:40:20 10° WSW 00:44:07 47° SSE 00:49:23 10° E visible
31 Oct - 02:51:04 10° W 02:55:57 48° NNW 03:04:07 10° NE night (unlit)
31 Oct - 05:04:54 10° WNW 05:09:26 16° NNW 05:15:19 10° N night (unlit)
31 Oct - 16:47:07 10° NNW 16:53:34 18° NNE 16:58:14 10° ENE daylight
31 Oct - 18:59:12 10° NW 19:06:30 60° NNE 19:11:00 10° ESE daylight
31 Oct - 21:13:49 10° W 21:18:11 36° SSW 21:21:40 10° SE daylight
31 Oct - 23:26:57 10° SW 23:30:15 29° S 23:33:59 10° ESE visible
01 Nov - 01:37:42 10° WSW 01:41:56 81° NNW 01:48:31 10° ENE visible
01 Nov - 03:49:37 10° WNW 03:54:24 23° NNW 04:01:25 10° NNE night (unlit)
01 Nov - 15:34:26 10° N 15:38:15 12° NNE 15:41:30 10° NE daylight
01 Nov - 17:43:41 10° NW 17:52:15 37° NNE 17:57:28 10° E daylight
01 Nov - 19:58:09 10° WNW 20:04:22 64° SSW 20:08:28 10° ESE daylight
01 Nov - 22:12:49 10° WSW 22:16:16 26° S 22:19:28 10° ESE visible
02 Nov - 00:24:29 10° WSW 00:28:11 54° SSE 00:33:04 10° E visible
02 Nov - 02:35:32 10° W 02:39:55 35° NNW 02:46:43 10° NE night (unlit)
02 Nov - 16:28:30 10° NNW 16:37:25 26° NNE 16:43:19 10° E daylight
02 Nov - 18:42:06 10° WNW 18:50:27 76° NNE 18:55:19 10° ESE daylight
02 Nov - 20:57:36 10° W 21:02:17 34° SSW 21:05:50 10° SE daylight
02 Nov - 23:11:01 10° SW 23:14:24 31° SSE 23:18:00 10° ESE visible
03 Nov - 01:21:59 10° WSW 01:25:56 62° NNW 01:31:44 10° NE visible
03 Nov - 03:34:49 10° WNW 03:38:22 16° NNW 03:42:59 10° N night (unlit)
03 Nov - 15:14:11 10° N 15:22:01 18° NNE 15:27:53 10° ENE daylight
03 Nov - 17:25:59 10° NW 17:36:06 49° NNE 17:41:55 10° E daylight
03 Nov - 19:41:32 10° W 19:48:22 56° SSW 19:52:41 10° ESE daylight
03 Nov - 21:56:43 10° WSW 22:00:26 27° S 22:03:40 10° ESE daylight
04 Nov - 00:08:35 10° WSW 00:12:16 66° SSE 00:16:48 10° ENE visible
04 Nov - 02:20:09 10° W 02:23:56 25° NNW 02:29:15 10° NNE night (unlit)
04 Nov - 14:03:03 10° NNE 14:05:59 11° NNE 14:08:40 10° NE daylight
04 Nov - 16:10:07 10° NNW 16:21:11 34° NNE 16:28:00 10° E daylight
04 Nov - 18:24:58 10° WNW 18:34:19 90° N 18:39:35 10° ESE daylight
04 Nov - 20:41:16 10° WSW 20:46:23 34° SSW 20:50:05 10° SE daylight
04 Nov - 22:54:57 10° SW 22:58:33 36° SSE 23:02:06 10° E visible
05 Nov - 01:06:17 10° W 01:09:59 45° NNW 01:14:59 10° NE visible
05 Nov - 14:54:56 10° NNW 15:05:39 24° NNE 15:13:07 10° ENE daylight
05 Nov - 17:08:17 10° NW 17:19:51 61° NNE 17:26:16 10° ESE daylight
05 Nov - 19:24:50 10° W 19:32:20 51° SSW 19:36:56 10° ESE daylight
05 Nov - 21:40:29 10° WSW 21:44:36 29° S 21:47:56 10° ESE daylight
05 Nov - 23:52:39 10° WSW 23:56:21 84° SSE 00:00:34 10° ENE visible
06 Nov - 02:05:03 10° WNW 02:07:57 17° NNW 02:11:36 10° NNE night (unlit)
06 Nov - 13:41:20 10° N 13:49:33 16° NNE 13:56:11 10° ENE daylight
06 Nov - 15:51:51 10° NW 16:04:49 42° NNE 16:12:28 10° E daylight
06 Nov - 18:07:48 10° WNW 18:18:07 80° SSW 18:23:49 10° ESE daylight
06 Nov - 20:24:48 10° WSW 20:30:29 34° S 20:34:23 10° ESE daylight
06 Nov - 22:38:47 10° WSW 22:42:42 43° SSE 22:46:16 10° E visible
07 Nov - 00:50:39 10° W 00:54:01 31° NNW 00:58:12 10° NE visible
07 Nov - 14:36:04 10° NNW 14:49:10 30° NNE 14:57:52 10° E daylight
07 Nov - 16:50:36 10° NW 17:03:31 72° NNE 17:10:31 10° ESE daylight
07 Nov - 19:08:02 10° W 19:16:17 49° SSW 19:21:11 10° ESE daylight
07 Nov - 21:24:06 10° WSW 21:28:46 33° S 21:32:17 10° ESE daylight
07 Nov - 23:36:41 10° WSW 23:40:27 72° NNW 23:44:22 10° ENE visible
08 Nov - 01:50:59 10° NW 01:51:58 11° NNW 01:53:02 10° NNW night (unlit)
08 Nov - 13:21:31 10° N 13:32:57 21° NNE 13:41:43 10° ENE daylight
08 Nov - 15:33:39 10° NW 15:48:18 52° NNE 15:56:48 10° ESE daylight
08 Nov - 17:50:34 10° WNW 18:01:51 72° SSW 18:08:02 10° ESE daylight
08 Nov - 20:08:13 10° WSW 20:14:34 36° S 20:18:44 10° ESE daylight
08 Nov - 22:22:31 10° WSW 22:26:50 54° SSE 22:30:27 10° E visible
